1506700800.75,56493,18.44,74446.5,-0.55,-7.69,-17.45,0,*52
1506700801.96,56494,18.44,74448.5,-0.55,-7.49,-16.89,0,*56
1506700803.21,56495,18.44,74444.5,-0.55,-7.43,-16.55,0,*5C
1506700804.45,56496,18.44,74444.5,-0.55,-7.31,-16.41,0,*5F
1506700805.69,56497,18.44,74446.5,-0.55,-7.31,-16.55,0,*5B
1506700806.96,56498,18.44,74444.0,-0.55,-7.31,-17.03,0,*56
1506700808.17,56499,18.44,74444.8,-0.55,-7.49,-18.25,0,*53
1506700809.44,56500,18.44,74446.8,-0.55,-7.73,-19.31,0,*5F
1506700810.67,56501,18.44,74444.5,-0.55,-8.03,-18.99,0,*55
1506700811.89,56502,18.44,74446.3,-0.55,-8.25,-18.79,0,*5C
1506700813.08,56503,18.44,74444.0,-0.57,-8.55,-18.83,0,*5D
1506700814.27,56504,18.44,74446.0,-0.57,-8.45,-18.73,0,*54
1506700815.52,56505,18.44,74446.0,-0.55,-8.17,-17.45,0,*5A
1506700816.75,56506,18.44,74444.5,-0.57,-8.07,-16.59,0,*56
1506700817.96,56507,18.44,74446.5,-0.57,-8.03,-16.03,0,*5C
1506700819.18,56508,18.44,74444.3,-0.57,-7.91,-16.03,0,*57
1506700820.4,56509,18.44,74444.5,-0.57,-7.73,-16.03,0,*5A
1506700821.62,56510,18.44,74446.8,-0.57,-7.61,-16.37,0,*56
1506700822.87,56511,18.44,74446.8,-0.57,-7.61,-16.17,0,*55
1506700824.13,56512,18.44,74444.3,-0.59,-7.65,-16.75,0,*58
1506700825.4,56513,18.44,74446.3,-0.59,-8.03,-17.63,0,*50
1506700826.64,56514,18.44,74446.0,-0.57,-8.81,-18.93,0,*53
1506700827.91,56515,18.44,74444.3,-0.59,-9.49,-19.31,0,*50
1506700829.1,56516,18.44,74446.5,-0.57,-9.79,-19.47,0,*5F
1506700830.36,56517,18.44,74444.5,-0.59,-10.57,-20.53,0,*6B
1506700831.6,56518,18.44,74444.5,-0.59,-11.01,-20.59,0,*6C
1506700832.83,56519,18.44,74446.3,-0.59,-11.15,-20.69,0,*6B
1506700834.08,56520,18.44,74444.5,-0.59,-11.45,-20.89,0,*6A
1506700835.33,56521,18.44,74446.3,-0.59,-11.59,-21.09,0,*6F
1506700836.61,56522,18.44,74446.0,-0.59,-11.73,-21.03,0,*6E
1506700837.81,56523,18.44,74444.5,-0.61,-12.03,-21.39,0,*69
1506700839.07,56524,18.44,74444.3,-0.61,-11.89,-21.23,0,*64
1506700840.33,56525,18.44,74446.8,-0.63,-11.67,-20.89,0,*66
1506700841.56,56526,18.44,74444.5,-0.63,-11.45,-20.29,0,*6F
1506700842.8,56527,18.5,74450.0,-0.61,-11.45,-20.49,0,*6A
1506700844.06,56528,18.44,74446.0,-0.63,-11.23,-20.19,0,*62
1506700845.34,56529,18.44,74446.5,-0.63,-11.07,-19.41,0,*62
1506700846.58,56530,18.44,74446.8,-0.63,-11.11,-19.23,0,*69
1506700847.83,56531,18.44,74446.0,-0.63,-11.07,-19.07,0,*69
1506700849.08,56532,18.44,74444.5,-0.67,-11.15,-19.27,0,*6F
1506700850.33,56533,18.44,74444.3,-0.63,-10.79,-18.65,0,*66
1506700851.56,56534,18.44,74444.8,-0.67,-10.85,-18.49,0,*68
1506700852.82,56535,18.44,74444.5,-0.67,-10.67,-18.11,0,*68
1506700854.04,56536,18.44,74444.3,-0.69,-10.57,-18.01,0,*67
1506700855.33,56537,18.44,74446.5,-0.67,-10.67,-18.35,0,*6C
1506700856.58,56538,18.44,74444.3,-0.67,-10.57,-18.35,0,*60
1506700857.8,56539,18.44,74444.5,-0.67,-10.57,-18.25,0,*60
1506700859.05,56540,18.44,74444.0,-0.67,-10.45,-18.35,0,*6C
1506700860.25,56541,18.44,74446.3,-0.69,-10.49,-18.73,0,*6D
1506700861.51,56542,18.44,74446.8,-0.67,-10.57,-19.41,0,*6F
1506700862.7,56543,18.44,74446.5,-0.69,-10.89,-19.71,0,*60
1506700863.95,56544,18.44,74442.8,-0.69,-10.79,-19.61,0,*69
1506700865.15,56545,18.44,74444.5,-0.69,-10.89,-19.47,0,*63
1506700866.38,56546,18.44,74444.8,-0.69,-10.75,-19.17,0,*66
1506700867.62,56547,18.44,74444.8,-0.69,-10.75,-19.23,0,*60
1506700868.88,56548,18.44,74446.3,-0.67,-10.41,-18.69,0,*69
1506700870.07,56549,18.44,74446.8,-0.69,-10.31,-18.41,0,*6B
1506700871.27,56550,18.44,74444.3,-0.69,-10.23,-18.07,0,*62
1506700872.49,56551,18.44,74442.8,-0.73,-10.01,-17.97,0,*6E
1506700873.72,56552,18.44,74446.8,-0.71,-10.19,-18.41,0,*62
1506700874.93,56553,18.44,74444.5,-0.69,-10.23,-18.59,0,*6A
1506700876.13,56554,18.44,74444.3,-0.73,-10.23,-18.45,0,*6B
1506700877.37,56555,18.44,74444.3,-0.71,-10.23,-18.55,0,*69
1506700878.57,56556,18.44,74444.3,-0.73,-10.15,-18.45,0,*6C
1506700879.77,56557,18.44,74446.3,-0.73,-10.23,-18.45,0,*68
1506700880.99,56558,18.44,74444.5,-0.73,-10.41,-18.45,0,*63
1506700882.21,56559,18.44,74446.8,-0.73,-10.53,-18.35,0,*66
1506700883.43,56560,18.44,74442.3,-0.73,-10.63,-18.21,0,*6A
1506700884.68,56561,18.44,74446.3,-0.71,-10.71,-18.21,0,*6A
1506700885.93,56562,18.44,74442.0,-0.73,-10.75,-18.31,0,*6E
1506700887.22,56563,18.44,74444.3,-0.71,-10.63,-17.97,0,*69
1506700888.45,56564,18.44,74444.3,-0.73,-10.63,-18.11,0,*6D
1506700889.68,56565,18.44,74444.5,-0.73,-10.63,-17.83,0,*68
1506700890.93,56566,18.44,74446.5,-0.71,-10.71,-18.07,0,*69
1506700892.12,56567,18.44,74444.3,-0.73,-10.85,-18.45,0,*67
1506700893.38,56568,18.44,74446.0,-0.75,-10.97,-18.35,0,*6A
1506700894.64,56569,18.44,74446.8,-0.75,-11.23,-18.35,0,*65
1506700895.91,56570,18.44,74446.3,-0.75,-11.67,-18.93,0,*61
1506700897.13,56571,18.44,74446.0,-0.77,-11.81,-18.79,0,*6E
1506700898.41,56572,18.44,74444.5,-0.75,-11.81,-18.35,0,*67
1506700899.65,56573,18.44,74446.8,-0.77,-11.73,-17.59,0,*6C
1506700900.91,56574,18.44,74446.8,-0.75,-11.59,-16.97,0,*62
1506700902.16,56575,18.44,74446.0,-0.77,-11.51,-16.69,0,*68
1506700903.36,56576,18.44,74444.0,-0.77,-11.41,-16.41,0,*60
1506700904.59,56577,18.44,74446.3,-0.77,-11.55,-16.41,0,*64
1506700905.82,56578,18.44,74444.0,-0.77,-11.55,-16.41,0,*6B
1506700907.09,56579,18.44,74442.8,-0.75,-11.59,-16.23,0,*60
1506700908.35,56580,18.44,74444.8,-0.77,-11.37,-15.85,0,*63
1506700909.58,56581,18.44,74444.3,-0.77,-11.23,-15.43,0,*6D
1506700910.81,56582,18.44,74442.5,-0.77,-11.23,-14.97,0,*66
1506700912.03,56583,18.44,74444.3,-0.77,-11.29,-14.69,0,*6C
1506700913.28,56584,18.44,74446.8,-0.79,-11.37,-14.69,0,*6A
1506700914.51,56585,18.44,74444.5,-0.79,-11.23,-14.69,0,*6E
1506700915.74,56586,18.44,74444.5,-0.77,-11.23,-14.83,0,*67
1506700916.97,56587,18.44,74444.8,-0.77,-11.41,-15.21,0,*6B
1506700918.25,56588,18.44,74446.8,-0.79,-11.51,-15.39,0,*62
1506700919.48,56589,18.44,74444.8,-0.79,-11.41,-15.53,0,*6E
1506700920.74,56590,18.44,74444.0,-0.79,-11.11,-15.35,0,*63
1506700922.0,56591,18.44,74442.8,-0.79,-10.97,-15.35,0,*6D
1506700923.25,56592,18.44,74446.8,-0.79,-10.89,-15.39,0,*6D
1506700924.48,56593,18.44,74442.3,-0.79,-10.97,-15.67,0,*68
1506700925.72,56594,18.44,74446.5,-0.79,-10.97,-15.71,0,*68
1506700926.95,56595,18.44,74444.3,-0.79,-10.89,-15.95,0,*6C
1506700928.18,56596,18.44,74442.0,-0.81,-11.07,-16.37,0,*64
1506700929.4,56597,18.44,74444.8,-0.79,-11.01,-16.45,0,*61
1506700930.63,56598,18.44,74444.5,-0.79,-11.01,-16.83,0,*64
1506700931.88,56599,18.44,74444.0,-0.79,-11.15,-17.17,0,*6C
1506700933.14,56600,18.44,74444.0,-0.81,-11.29,-17.63,0,*64
1506700934.39,56601,18.44,74444.0,-0.81,-11.33,-17.93,0,*61
1506700935.63,56602,18.44,74442.8,-0.81,-11.33,-18.11,0,*67
1506700936.86,56603,18.44,74442.3,-0.81,-11.67,-18.45,0,*66
1506700938.08,56604,18.44,74440.5,-0.81,-11.73,-18.83,0,*6E
1506700939.3,56605,18.44,74442.5,-0.81,-11.77,-19.03,0,*62
1506700940.53,56606,18.44,74442.3,-0.81,-11.77,-19.17,0,*64
1506700941.78,56607,18.44,74440.5,-0.81,-11.97,-19.65,0,*6E
1506700943.01,56608,18.44,74440.3,-0.81,-11.97,-19.95,0,*6E
1506700944.24,56609,18.44,74444.0,-0.81,-11.89,-19.75,0,*6E
1506700945.47,56610,18.44,74446.0,-0.81,-12.11,-19.75,0,*64
1506700946.73,56611,18.44,74444.3,-0.81,-12.15,-20.19,0,*61
1506700947.99,56612,18.44,74446.5,-0.83,-12.25,-20.53,0,*6D
1506700949.22,56613,18.44,74444.5,-0.83,-12.39,-20.69,0,*68
1506700950.48,56614,18.44,74446.5,-0.83,-12.29,-20.83,0,*6A
1506700951.72,56615,18.44,74440.8,-0.83,-12.29,-21.13,0,*63
1506700952.94,56616,18.44,74444.0,-0.83,-12.39,-21.47,0,*60
1506700954.19,56617,18.44,74444.8,-0.85,-12.61,-22.03,0,*69
1506700955.46,56618,18.44,74444.8,-0.85,-12.35,-21.67,0,*66
1506700956.73,56619,18.44,74444.0,-0.85,-12.35,-21.57,0,*64
1506700957.98,56620,18.44,74446.5,-0.85,-12.57,-22.03,0,*68
1506700959.25,56621,18.44,74444.0,-0.85,-12.61,-21.87,0,*63
1506700960.53,56622,18.44,74446.0,-0.83,-12.57,-21.97,0,*62
1506700961.78,56623,18.44,74446.5,-0.85,-12.61,-22.03,0,*6E
1506700963.02,56624,18.44,74442.0,-0.85,-12.47,-21.57,0,*6F
1506700964.26,56625,18.44,74442.0,-0.85,-12.57,-21.39,0,*67
1506700965.49,56626,18.44,74446.0,-0.91,-12.65,-21.43,0,*6D
1506700966.76,56627,18.44,74446.0,-0.89,-12.65,-21.87,0,*6D
1506700968.01,56628,18.44,74440.8,-0.89,-12.65,-22.03,0,*6D
1506700969.29,56629,18.44,74444.5,-0.89,-12.65,-21.87,0,*63
1506700970.53,56630,18.44,74444.5,-0.89,-12.83,-22.03,0,*6C
1506700971.75,56631,18.44,74442.8,-0.91,-12.83,-21.93,0,*6E
1506700972.98,56632,18.44,74442.8,-0.91,-12.65,-21.77,0,*6F
1506700974.22,56633,18.44,74444.5,-0.89,-12.83,-22.07,0,*6B
1506700975.46,56634,18.44,74446.5,-0.91,-12.97,-22.17,0,*61
1506700976.73,56635,18.44,74444.8,-0.93,-13.01,-21.97,0,*67
1506700977.98,56636,18.5,74450.5,-0.93,-13.11,-21.97,0,*65
1506700979.2,56637,18.44,74446.3,-0.95,-13.15,-21.83,0,*63
1506700980.46,56638,18.44,74446.0,-0.93,-13.29,-21.77,0,*6E
1506700981.71,56639,18.44,74444.5,-0.93,-13.37,-21.77,0,*60
1506700982.91,56640,18.44,74442.3,-0.95,-13.55,-21.47,0,*6F
1506700984.14,56641,18.44,74444.8,-0.95,-13.55,-20.99,0,*6C
1506700985.38,56642,18.44,74444.0,-0.95,-13.37,-20.39,0,*61
1506700986.62,56643,18.44,74444.5,-0.93,-13.23,-20.39,0,*63
1506700987.85,56644,18.44,74444.0,-0.95,-13.11,-20.53,0,*6F
1506700989.08,56645,18.44,74442.8,-0.95,-12.83,-20.39,0,*68
1506700990.31,56646,18.44,74444.5,-0.95,-13.01,-20.73,0,*6E
1506700991.57,56647,18.44,74446.3,-0.95,-13.01,-20.99,0,*6B
1506700992.84,56648,18.44,74442.8,-0.97,-13.01,-21.33,0,*67
1506700994.05,56649,18.44,74442.8,-0.99,-13.11,-21.93,0,*63
1506700995.27,56650,18.44,74442.8,-0.99,-13.33,-22.41,0,*67
1506700996.52,56651,18.44,74444.3,-0.97,-13.33,-22.53,0,*6B
1506700997.74,56652,18.44,74444.8,-0.97,-13.15,-22.67,0,*6B
1506700998.95,56653,18.44,74440.5,-0.99,-13.23,-22.83,0,*6B
1506701000.2,56654,18.44,74440.5,-0.99,-13.37,-23.03,0,*60
1506701001.41,56655,18.44,74444.3,-0.99,-13.51,-22.97,0,*6D
1506701002.69,56656,18.44,74444.3,-0.97,-13.61,-23.03,0,*6F
1506701003.92,56657,18.44,74444.5,-0.99,-13.61,-22.97,0,*6C
1506701005.12,56658,18.44,74446.8,-0.99,-13.47,-22.87,0,*66
1506701006.32,56659,18.44,74444.3,-0.99,-13.47,-22.83,0,*63
1506701007.55,56660,18.44,74444.8,-0.99,-13.33,-22.83,0,*6A
1506701008.82,56661,18.44,74440.5,-1.01,-13.51,-23.19,0,*5D
1506701010.08,56662,18.44,74444.3,-1.01,-13.61,-23.43,0,*52
1506701011.34,56663,18.44,74440.5,-1.01,-13.65,-23.49,0,*5D
1506701012.59,56664,18.44,74442.8,-1.01,-13.65,-23.95,0,*5B
1506701013.85,56665,18.44,74442.8,-1.01,-13.73,-23.99,0,*51
1506701015.13,56666,18.44,74442.0,-1.01,-13.79,-23.99,0,*58
1506701016.41,56667,18.44,74444.5,-1.01,-14.05,-23.99,0,*55
1506701017.65,56668,18.44,74446.0,-1.03,-14.23,-24.15,0,*5F
1506701018.94,56669,18.44,74440.3,-1.01,-14.47,-24.83,0,*51
1506701020.2,56670,18.44,74442.8,-1.01,-14.79,-25.39,0,*54
1506701021.42,56671,18.44,74444.3,-1.03,-15.01,-25.35,0,*55
1506701022.63,56672,18.44,74442.8,-1.03,-15.25,-25.35,0,*50
1506701023.89,56673,18.44,74446.3,-1.03,-15.39,-25.81,0,*53
1506701025.1,56674,18.44,74444.8,-1.03,-15.71,-25.65,0,*52
1506701026.32,56675,18.44,74446.0,-1.03,-15.75,-25.49,0,*59
1506701027.59,56676,18.44,74444.0,-1.07,-16.17,-25.75,0,*56
1506701028.87,56677,18.44,74442.0,-1.05,-16.13,-25.03,0,*50
1506701030.13,56678,18.44,74442.0,-1.07,-15.81,-24.87,0,*58
1506701031.36,56679,18.44,74442.3,-1.05,-15.99,-26.03,0,*5C
1506701032.63,56680,18.44,74442.8,-1.07,-16.17,-26.93,0,*54
1506701033.89,56681,18.44,74444.8,-1.07,-16.69,-27.35,0,*51
1506701035.13,56682,18.44,74440.0,-1.07,-17.07,-27.51,0,*59
1506701036.37,56683,18.44,74446.0,-1.07,-17.25,-27.51,0,*58
1506701037.6,56684,18.44,74446.3,-1.07,-17.63,-27.51,0,*5D
1506701038.81,56685,18.44,74444.5,-1.07,-17.83,-27.55,0,*56
1506701040.02,56686,18.44,74446.5,-1.07,-18.11,-27.51,0,*55
1506701041.23,56687,18.44,74444.5,-1.07,-18.45,-27.55,0,*51
1506701042.49,56688,18.44,74448.0,-1.11,-18.55,-27.23,0,*59
1506701043.72,56689,18.44,74444.5,-1.11,-18.59,-27.03,0,*56
1506701044.93,56690,18.44,74444.3,-1.11,-18.73,-26.87,0,*5B
1506701046.13,56691,18.44,74444.0,-1.11,-18.65,-26.49,0,*5F
1506701047.34,56692,18.44,74448.3,-1.11,-18.73,-26.07,0,*51
1506701048.59,56693,18.44,74442.8,-1.11,-18.79,-25.71,0,*58
1506701049.87,56694,18.44,74442.8,-1.13,-18.59,-25.29,0,*52
1506701051.1,56695,18.44,74442.3,-1.13,-18.45,-25.23,0,*54
1506701052.38,56696,18.44,74442.5,-1.13,-18.31,-25.09,0,*5C
1506701053.61,56697,18.44,74444.3,-1.13,-18.21,-25.13,0,*57
1506701054.88,56698,18.44,74442.8,-1.13,-18.45,-25.55,0,*58
1506701056.15,56699,18.44,74444.5,-1.13,-18.45,-25.55,0,*59
1506701057.41,56700,18.44,74440.3,-1.15,-18.59,-25.55,0,*53
1506701058.65,56701,18.44,74444.3,-1.15,-18.35,-25.39,0,*52
1506701059.92,56702,18.44,74444.3,-1.13,-18.31,-25.13,0,*5B
1506701061.16,56703,18.44,74444.3,-1.13,-18.07,-25.09,0,*54
1506701062.4,56704,18.44,74446.0,-1.15,-18.07,-24.83,0,*56
1506701063.61,56705,18.44,74444.5,-1.15,-18.17,-24.77,0,*5D
1506701064.82,56706,18.44,74440.5,-1.15,-18.17,-24.61,0,*59
1506701066.02,56707,18.44,74444.5,-1.17,-18.21,-24.35,0,*5E
1506701067.22,56708,18.44,74442.8,-1.17,-18.21,-24.31,0,*55
1506701068.45,56709,18.44,74440.8,-1.15,-18.17,-24.15,0,*55
1506701069.66,56710,18.44,74440.3,-1.15,-18.21,-24.31,0,*5E
1506701070.95,56711,18.44,74440.3,-1.13,-18.31,-24.25,0,*5D
1506701072.15,56712,18.44,74446.0,-1.17,-18.49,-24.31,0,*50
1506701073.38,56713,18.44,74440.5,-1.15,-18.59,-24.31,0,*52
1506701074.59,56714,18.44,74444.5,-1.17,-18.65,-24.47,0,*59
1506701075.81,56715,18.44,74446.8,-1.17,-18.73,-24.41,0,*59
1506701077.01,56716,18.44,74440.8,-1.17,-18.69,-24.47,0,*57
1506701078.24,56717,18.44,74444.8,-1.19,-18.83,-24.47,0,*5C
1506701079.47,56718,18.44,74446.0,-1.21,-19.03,-24.67,0,*53
1506701080.69,56719,18.44,74446.5,-1.19,-18.83,-24.51,0,*55
1506701081.94,56720,18.44,74442.0,-1.21,-18.89,-24.41,0,*5F
1506701083.2,56721,18.44,74444.0,-1.19,-18.99,-24.21,0,*52
1506701084.43,56722,18.44,74440.0,-1.21,-19.03,-24.25,0,*5C
1506701085.7,56723,18.44,74440.5,-1.19,-19.13,-24.21,0,*53
1506701086.93,56724,18.44,74446.8,-1.21,-19.17,-24.25,0,*5F
1506701088.19,56725,18.44,74442.8,-1.21,-19.23,-24.25,0,*59
1506701089.43,56726,18.44,74446.0,-1.21,-19.37,-24.21,0,*5B
1506701090.66,56727,18.44,74442.8,-1.21,-19.51,-24.11,0,*59
1506701091.88,56728,18.44,74440.3,-1.21,-19.51,-23.95,0,*5D
1506701093.11,56729,18.44,74444.5,-1.21,-19.65,-23.79,0,*59
1506701094.33,56730,18.44,74444.5,-1.21,-19.81,-23.79,0,*5B
1506701095.59,56731,18.44,74444.5,-1.23,-19.99,-23.85,0,*52
1506701096.83,56732,18.44,74440.0,-1.23,-19.99,-23.75,0,*5E
1506701098.05,56733,18.44,74440.5,-1.25,-20.19,-23.75,0,*5B
1506701099.29,56734,18.44,74444.5,-1.23,-20.29,-23.65,0,*58
1506701100.52,56735,18.44,74442.5,-1.23,-20.43,-23.59,0,*5A
1506701101.75,56736,18.44,74442.5,-1.25,-20.43,-23.29,0,*58
1506701103.01,56737,18.44,74446.8,-1.23,-20.63,-23.19,0,*5E
1506701104.24,56738,18.44,74442.8,-1.23,-20.73,-22.97,0,*57
1506701105.47,56739,18.44,74442.5,-1.25,-20.79,-22.63,0,*51
1506701106.73,56740,18.44,74442.3,-1.27,-21.03,-22.53,0,*52
1506701107.95,56741,18.44,74442.3,-1.25,-21.13,-22.31,0,*54
1506701109.21,56742,18.44,74440.5,-1.27,-21.27,-22.11,0,*50
1506701110.44,56743,18.44,74444.3,-1.27,-21.47,-21.93,0,*5E
1506701111.67,56744,18.44,74444.5,-1.25,-21.43,-21.67,0,*54
1506701112.9,56745,18.44,74442.5,-1.27,-21.47,-21.47,0,*51
1506701114.13,56746,18.44,74444.5,-1.29,-21.57,-21.43,0,*59
1506701115.38,56747,18.44,74442.3,-1.27,-21.47,-21.33,0,*50
1506701116.62,56748,18.44,74440.5,-1.29,-21.47,-21.27,0,*54
1506701117.82,56749,18.44,74444.0,-1.29,-21.63,-21.43,0,*51
1506701119.1,56750,18.44,74446.3,-1.27,-21.57,-21.33,0,*57
1506701120.38,56751,18.44,74444.8,-1.27,-21.57,-21.27,0,*53
1506701121.61,56752,18.44,74444.5,-1.25,-21.43,-21.27,0,*57
1506701122.81,56753,18.44,74446.8,-1.29,-21.47,-21.43,0,*5C
1506701124.04,56754,18.44,74444.0,-1.29,-21.57,-21.43,0,*5A
1506701125.26,56755,18.44,74446.8,-1.31,-21.63,-21.63,0,*57
1506701126.55,56756,18.44,74440.3,-1.31,-21.53,-21.83,0,*59
1506701127.8,56757,18.44,74444.0,-1.31,-21.63,-21.87,0,*5F
1506701129.09,56758,18.44,74440.8,-1.35,-21.67,-22.17,0,*5A
1506701130.3,56759,18.44,74444.8,-1.29,-21.63,-22.27,0,*51
1506701131.58,56760,18.44,74440.5,-1.31,-21.83,-22.47,0,*5A
1506701132.86,56761,18.44,74440.3,-1.31,-21.97,-22.77,0,*5D
1506701134.09,56762,18.44,74442.5,-1.31,-22.11,-22.97,0,*5D
1506701135.35,56763,18.44,74442.3,-1.35,-22.27,-23.23,0,*53
1506701136.63,56764,18.44,74446.0,-1.35,-22.47,-23.29,0,*58
1506701137.86,56765,18.44,74442.3,-1.35,-22.63,-23.39,0,*5E
1506701139.09,56766,18.44,74440.0,-1.35,-22.83,-23.43,0,*5E
1506701140.33,56767,18.44,74446.3,-1.35,-22.83,-23.43,0,*5F
1506701141.55,56768,18.44,74440.8,-1.31,-22.83,-23.39,0,*59
1506701142.79,56769,18.44,74446.0,-1.35,-22.93,-23.43,0,*50
1506701144.03,56770,18.44,74446.3,-1.35,-22.97,-23.43,0,*5C
1506701145.26,56771,18.44,74446.5,-1.35,-23.13,-23.39,0,*5D
1506701146.52,56772,18.44,74440.8,-1.35,-23.29,-23.43,0,*5A
1506701147.78,56773,18.44,74444.0,-1.35,-23.43,-23.53,0,*56
1506701149.06,56774,18.44,74444.0,-1.39,-23.49,-23.49,0,*5C
1506701150.34,56775,18.44,74442.3,-1.39,-23.49,-23.49,0,*5D
1506701151.63,56776,18.44,74442.5,-1.39,-23.65,-23.49,0,*50
1506701152.86,56777,18.44,74444.3,-1.39,-23.75,-23.59,0,*51
1506701154.12,56778,18.44,74440.5,-1.39,-23.79,-23.49,0,*53
1506701155.37,56779,18.44,74440.0,-1.41,-23.85,-23.53,0,*55
1506701156.65,56780,18.44,74444.5,-1.39,-23.65,-23.33,0,*54
1506701157.89,56781,18.44,74446.3,-1.41,-23.75,-23.33,0,*5B
1506701159.16,56782,18.44,74440.5,-1.39,-23.65,-23.29,0,*5D
1506701160.38,56783,18.44,74444.0,-1.41,-23.69,-23.39,0,*5E
1506701161.64,56784,18.44,74442.8,-1.41,-23.49,-23.23,0,*50
1506701162.87,56785,18.44,74444.5,-1.41,-23.39,-23.19,0,*5F
1506701164.11,56786,18.44,74442.5,-1.41,-23.09,-23.23,0,*56
1506701165.37,56787,18.44,74446.3,-1.41,-23.03,-23.23,0,*5D
1506701166.57,56788,18.44,74440.8,-1.41,-22.87,-23.39,0,*54
1506701167.8,56789,18.44,74442.3,-1.41,-22.67,-23.33,0,*51
1506701169.02,56790,18.44,74442.8,-1.41,-22.41,-23.33,0,*5D
1506701170.26,56791,18.44,74444.5,-1.41,-22.37,-23.33,0,*5D
1506701171.49,56792,18.44,74444.0,-1.41,-22.11,-23.23,0,*5B
1506701172.74,56793,18.44,74442.5,-1.43,-22.07,-23.19,0,*56
1506701173.96,56794,18.44,74442.3,-1.41,-21.93,-22.93,0,*5E
1506701175.17,56795,18.44,74440.3,-1.45,-21.73,-22.67,0,*5E
1506701176.43,56796,18.44,74444.5,-1.43,-21.57,-22.27,0,*59
1506701177.64,56797,18.44,74440.3,-1.45,-21.77,-22.27,0,*5C
1506701178.9,56798,18.44,74444.8,-1.43,-21.57,-22.07,0,*55
1506701180.16,56799,18.44,74442.3,-1.43,-21.33,-21.77,0,*52
1506701181.36,56800,18.44,74446.0,-1.45,-21.09,-21.63,0,*57
1506701182.6,56801,18.44,74440.5,-1.45,-20.73,-21.23,0,*5E
1506701183.84,56802,18.44,74444.3,-1.43,-20.25,-21.17,0,*5F
1506701185.05,56803,18.44,74442.3,-1.45,-19.99,-21.09,0,*5A
1506701186.31,56804,18.44,74446.3,-1.43,-19.47,-20.79,0,*5E
1506701187.55,56805,18.44,74440.3,-1.45,-19.23,-20.69,0,*5A
1506701188.81,56806,18.44,74442.3,-1.43,-18.79,-20.53,0,*58
1506701190.03,56807,18.44,74444.8,-1.45,-18.69,-20.69,0,*57
1506701191.24,56808,18.44,74442.5,-1.45,-18.45,-20.69,0,*56
1506701192.48,56809,18.44,74442.5,-1.47,-18.21,-20.73,0,*5C
1506701193.75,56810,18.44,74442.0,-1.47,-17.97,-20.89,0,*53
1506701195.0,56811,18.44,74442.5,-1.45,-17.79,-20.89,0,*50
1506701196.26,56812,18.44,74440.5,-1.45,-17.79,-20.99,0,*52
1506701197.51,56813,18.44,74444.0,-1.45,-17.63,-20.83,0,*53
1506701198.75,56814,18.44,74442.5,-1.45,-17.63,-20.73,0,*5B
1506701200.03,56815,18.44,74442.5,-1.47,-17.59,-20.79,0,*5B
1506701201.29,56816,18.44,74446.3,-1.49,-17.59,-20.73,0,*5C
1506701202.56,56817,18.44,74442.5,-1.47,-17.59,-20.59,0,*5B
1506701203.82,56818,18.44,74442.3,-1.47,-17.59,-20.29,0,*53
1506701205.1,56819,18.44,74440.5,-1.49,-17.41,-20.15,0,*5A
1506701206.36,56820,18.44,74444.0,-1.47,-17.11,-19.95,0,*59
1506701207.59,56821,18.44,74444.0,-1.45,-16.93,-19.81,0,*54
1506701208.82,56822,18.44,74440.8,-1.47,-16.79,-19.71,0,*5E
1506701210.03,56823,18.44,74446.0,-1.45,-16.45,-19.51,0,*50
1506701211.3,56824,18.44,74436.8,-1.47,-16.41,-19.41,0,*50
1506701212.56,56825,18.44,74442.0,-1.47,-16.23,-19.37,0,*54
1506701213.84,56826,18.44,74442.8,-1.49,-16.17,-18.93,0,*51
1506701215.1,56827,18.44,74440.8,-1.47,-16.03,-18.89,0,*50
1506701216.33,56828,18.44,74444.8,-1.49,-15.95,-18.73,0,*58
1506701217.59,56829,18.44,74444.8,-1.47,-15.89,-18.65,0,*5D
1506701218.85,56830,18.44,74440.8,-1.47,-15.81,-18.49,0,*53
1506701220.08,56831,18.44,74440.3,-1.47,-15.63,-18.45,0,*52
1506701221.34,56832,18.44,74446.0,-1.47,-15.49,-18.35,0,*5E
1506701222.6,56833,18.44,74444.3,-1.47,-15.35,-18.21,0,*51
1506701223.84,56834,18.44,74442.5,-1.47,-15.25,-18.11,0,*54
1506701225.12,56835,18.44,74446.5,-1.47,-15.21,-17.97,0,*50
1506701226.36,56836,18.44,74444.0,-1.47,-15.07,-17.87,0,*56
1506701227.59,56837,18.44,74442.3,-1.47,-14.89,-17.69,0,*50
1506701228.85,56838,18.44,74446.5,-1.47,-14.61,-17.55,0,*56
1506701230.11,56839,18.44,74440.0,-1.47,-14.37,-17.41,0,*51
1506701231.37,56840,18.44,74444.0,-1.49,-14.29,-17.41,0,*5E
1506701232.64,56841,18.44,74440.8,-1.47,-14.19,-17.25,0,*50
1506701233.92,56842,18.44,74440.5,-1.49,-14.05,-17.11,0,*57
1506701235.18,56843,18.44,74446.0,-1.47,-13.87,-16.97,0,*5A
1506701236.44,56844,18.44,74440.8,-1.49,-13.73,-16.69,0,*59
1506701237.67,56845,18.44,74444.3,-1.47,-13.47,-16.37,0,*5A
1506701238.96,56846,18.44,74442.0,-1.47,-13.33,-16.09,0,*57
1506701240.19,56847,18.44,74440.0,-1.45,-12.79,-15.67,0,*50
1506701241.44,56848,18.44,74442.3,-1.45,-12.57,-15.29,0,*59
1506701242.69,56849,18.44,74442.5,-1.49,-12.43,-15.01,0,*5B
1506701243.95,56850,18.44,74440.8,-1.47,-12.15,-14.65,0,*5D
1506701245.22,56851,18.44,74440.0,-1.47,-11.93,-14.37,0,*56
1506701246.48,56852,18.44,74440.3,-1.47,-11.77,-14.19,0,*53
1506701247.76,56853,18.44,74440.0,-1.47,-11.63,-13.79,0,*56
1506701249.0,56854,18.44,74444.3,-1.47,-11.45,-13.51,0,*5F
1506701250.23,56855,18.44,74440.0,-1.47,-11.19,-13.07,0,*54
1506701251.49,56856,18.44,74442.5,-1.49,-10.93,-12.75,0,*5E
1506701252.75,56857,18.44,74444.5,-1.47,-10.67,-12.47,0,*5B
1506701253.99,56858,18.44,74440.0,-1.47,-10.23,-12.21,0,*54
1506701255.24,56859,18.44,74442.5,-1.47,-9.89,-11.89,0,*6C
1506701256.5,56860,18.44,74444.0,-1.47,-9.71,-11.67,0,*61
1506701257.77,56861,18.44,74440.5,-1.47,-9.57,-11.37,0,*61
1506701259.05,56862,18.44,74442.3,-1.47,-9.53,-11.07,0,*65
1506701260.33,56863,18.44,74442.5,-1.47,-9.45,-11.07,0,*63
1506701261.59,56864,18.44,74440.8,-1.47,-9.45,-10.93,0,*68
1506701262.83,56865,18.44,74444.5,-1.45,-9.37,-10.57,0,*66
1506701264.04,56866,18.44,74440.5,-1.45,-9.27,-10.35,0,*60
1506701265.28,56867,18.44,74444.5,-1.45,-9.11,-9.93,0,*50
1506701266.51,56868,18.44,74442.3,-1.45,-8.71,-9.49,0,*5F
1506701267.73,56869,18.44,74440.8,-1.45,-8.41,-9.15,0,*54
1506701268.94,56870,18.44,74442.3,-1.45,-8.41,-9.01,0,*59
1506701270.14,56871,18.44,74442.5,-1.45,-8.21,-8.85,0,*53
1506701271.38,56872,18.44,74442.5,-1.45,-8.03,-8.81,0,*54
1506701272.59,56873,18.44,74444.5,-1.45,-7.91,-8.67,0,*59
1506701273.81,56874,18.44,74444.8,-1.45,-7.77,-8.55,0,*57
1506701275.06,56875,18.44,74444.0,-1.45,-7.61,-8.51,0,*55
1506701276.28,56876,18.44,74442.0,-1.45,-7.65,-8.55,0,*56
1506701277.53,56877,18.44,74440.8,-1.45,-7.65,-8.81,0,*5E
1506701278.74,56878,18.44,74440.8,-1.45,-7.65,-8.67,0,*59
1506701279.99,56879,18.44,74446.5,-1.45,-7.61,-8.81,0,*54
1506701281.21,56880,18.44,74440.3,-1.45,-7.53,-8.81,0,*53
1506701282.41,56881,18.44,74442.5,-1.45,-7.53,-8.85,0,*56
1506701283.63,56882,18.44,74440.0,-1.45,-7.35,-8.93,0,*52
1506701284.83,56883,18.44,74440.3,-1.45,-7.23,-8.97,0,*50
1506701286.06,56884,18.44,74442.8,-1.45,-7.19,-9.11,0,*51
1506701287.28,56885,18.44,74442.5,-1.45,-7.27,-9.23,0,*5C
1506701288.48,56886,18.44,74440.0,-1.45,-7.11,-9.23,0,*5A
1506701289.71,56887,18.44,74440.3,-1.43,-6.89,-9.19,0,*54
1506701290.9,56888,18.44,74440.5,-1.45,-6.85,-9.23,0,*58
1506701292.11,56889,18.44,74442.3,-1.45,-6.81,-9.27,0,*59
1506701293.3,56890,18.44,74442.8,-1.45,-6.69,-9.27,0,*57
1506701294.53,56891,18.44,74440.3,-1.45,-6.73,-9.37,0,*5C
1506701295.75,56892,18.44,74442.3,-1.45,-6.73,-9.49,0,*56
1506701297.01,56893,18.44,74444.5,-1.43,-6.77,-9.53,0,*5E
1506701298.24,56894,18.44,74442.0,-1.45,-6.73,-9.37,0,*59